• In Hungary
  • List of Countries
  • For 7 days
  • Water Temperature
  • Satellite Maps
  • Weather Map
  • News
  • Weather Widgets
  • user-avatar
    Login

    Hourly Weather Invercargill

    Today, 23 November, Thursday

    Time Temperature Precipitation Wind Pressure Humidity
    00:00 +12°C° 0 mm 2 mps 768 mmHg 99%
    01:00 +12°C° 0 mm 1 mps 768 mmHg 99%
    02:00 +12°C° 0 mm 1 mps 768 mmHg 98%
    03:00 +12°C° 0 mm 1 mps 768 mmHg 98%
    04:00 +12°C° 0 mm 1 mps 768 mmHg 98%
    05:00 +13°C° 0 mm 1 mps 768 mmHg 97%
    06:00 +15°C° 0 mm 1 mps 768 mmHg 86%
    07:00 +19°C° 0 mm 1 mps 768 mmHg 76%
    08:00 +22°C° 0 mm 1 mps 768 mmHg 65%
    09:00 +23°C° 0 mm 1 mps 768 mmHg 60%
    10:00 +25°C° 0 mm 1 mps 768 mmHg 56%
    11:00 +26°C° 0 mm 2 mps 768 mmHg 51%
    12:00 +26°C° 0 mm 2 mps 768 mmHg 51%
    13:00 +26°C° 0 mm 2 mps 767 mmHg 51%
    14:00 +26°C° 0 mm 3 mps 767 mmHg 51%
    15:00 +25°C° 0 mm 3 mps 767 mmHg 56%
    16:00 +22°C° 0 mm 3 mps 767 mmHg 60%
    17:00 +21°C° 0 mm 2 mps 767 mmHg 64%
    18:00 +19°C° 0 mm 2 mps 767 mmHg 72%
    19:00 +17°C° 0 mm 2 mps 767 mmHg 80%
    20:00 +15°C° 0 mm 1 mps 768 mmHg 88%
    21:00 +15°C° 0 mm 1 mps 768 mmHg 89%
    22:00 +14°C° 0 mm 1 mps 768 mmHg 91%
    23:00 +14°C° 0 mm 1 mps 768 mmHg 92%

    Tomorrow, 24 November, Friday

    Time Temperature Precipitation Wind Pressure Humidity
    00:00 +13°C° 0 mm 1 mps 768 mmHg 94%
    01:00 +13°C° 0 mm 1 mps 768 mmHg 95%
    02:00 +13°C° 0 mm 1 mps 768 mmHg 97%
    03:00 +13°C° 0 mm 1 mps 768 mmHg 96%
    04:00 +13°C° 0 mm 1 mps 768 mmHg 95%
    05:00 +13°C° 0 mm 1 mps 768 mmHg 94%
    06:00 +15°C° 0 mm 1 mps 768 mmHg 88%
    07:00 +16°C° 0 mm 1 mps 768 mmHg 81%
    08:00 +18°C° 0 mm 1 mps 768 mmHg 75%
    09:00 +20°C° 0 mm 1 mps 768 mmHg 67%
    10:00 +21°C° 0 mm 1 mps 767 mmHg 60%
    11:00 +23°C° 0 mm 2 mps 767 mmHg 53%
    12:00 +23°C° 0 mm 2 mps 767 mmHg 52%
    13:00 +22°C° 0 mm 3 mps 767 mmHg 50%
    14:00 +22°C° 0 mm 3 mps 766 mmHg 49%
    15:00 +21°C° 0 mm 3 mps 767 mmHg 53%
    16:00 +20°C° 0 mm 3 mps 767 mmHg 57%
    17:00 +19°C° 0 mm 3 mps 767 mmHg 61%
    18:00 +18°C° 0 mm 2 mps 767 mmHg 67%
    19:00 +17°C° 0 mm 2 mps 768 mmHg 73%
    20:00 +15°C° 0 mm 1 mps 768 mmHg 79%
    21:00 +15°C° 0 mm 1 mps 768 mmHg 83%
    22:00 +14°C° 0 mm 1 mps 768 mmHg 87%
    23:00 +13°C° 0 mm 1 mps 769 mmHg 92%

    Day after tomorrow, 25 November, Saturday

    Time Temperature Precipitation Wind Pressure Humidity
    00:00 +13°C° 0 mm 1 mps 768 mmHg 93%
    01:00 +12°C° 0 mm 1 mps 768 mmHg 94%
    02:00 +12°C° 0 mm 1 mps 768 mmHg 96%
    03:00 +12°C° 0 mm 1 mps 768 mmHg 93%
    04:00 +13°C° 0 mm 1 mps 768 mmHg 91%
    05:00 +13°C° 0 mm 1 mps 769 mmHg 88%
    06:00 +16°C° 0 mm 1 mps 769 mmHg 79%
    07:00 +19°C° 0 mm 1 mps 769 mmHg 69%
    08:00 +22°C° 0 mm 1 mps 769 mmHg 60%
    09:00 +23°C° 0.1 mm 1 mps 769 mmHg 57%
    10:00 +24°C° 0.1 mm 2 mps 769 mmHg 55%
    11:00 +25°C° 0.1 mm 2 mps 769 mmHg 52%
    12:00 +24°C° 0.3 mm 2 mps 768 mmHg 59%
    13:00 +22°C° 0.3 mm 3 mps 768 mmHg 67%
    14:00 +22°C° 0.3 mm 3 mps 768 mmHg 75%
    15:00 +21°C° 0.3 mm 3 mps 768 mmHg 76%
    16:00 +21°C° 0.3 mm 2 mps 768 mmHg 78%
    17:00 +20°C° 0.3 mm 2 mps 768 mmHg 79%
    18:00 +18°C° 0.1 mm 2 mps 768 mmHg 83%
    19:00 +17°C° 0.1 mm 2 mps 769 mmHg 86%
    20:00 +15°C° 0.1 mm 1 mps 769 mmHg 89%
    21:00 +15°C° 0 mm 1 mps 769 mmHg 90%
    22:00 +14°C° 0 mm 1 mps 769 mmHg 91%
    23:00 +13°C° 0 mm 1 mps 769 mmHg 92%

    26 November, Sunday

    Time Temperature Precipitation Wind Pressure Humidity
    00:00 +13°C° 0 mm 1 mps 768 mmHg 93%
    01:00 +13°C° 0 mm 1 mps 768 mmHg 95%
    02:00 +13°C° 0 mm 1 mps 768 mmHg 96%
    03:00 +13°C° 0 mm 1 mps 768 mmHg 96%
    04:00 +13°C° 0 mm 1 mps 768 mmHg 95%
    05:00 +14°C° 0 mm 1 mps 768 mmHg 95%
    06:00 +16°C° 0 mm 1 mps 768 mmHg 85%
    07:00 +19°C° 0 mm 1 mps 768 mmHg 76%
    08:00 +21°C° 0 mm 1 mps 768 mmHg 67%
    09:00 +22°C° 0 mm 1 mps 768 mmHg 63%
    10:00 +23°C° 0 mm 2 mps 768 mmHg 58%
    11:00 +24°C° 0 mm 2 mps 767 mmHg 54%
    12:00 +24°C° 0.3 mm 2 mps 767 mmHg 55%
    13:00 +24°C° 0.3 mm 2 mps 767 mmHg 57%
    14:00 +24°C° 0.3 mm 3 mps 767 mmHg 59%
    15:00 +23°C° 0.2 mm 2 mps 767 mmHg 60%
    16:00 +23°C° 0.2 mm 2 mps 767 mmHg 61%
    17:00 +21°C° 0.2 mm 2 mps 767 mmHg 63%
    18:00 +19°C° 0 mm 2 mps 767 mmHg 71%
    19:00 +18°C° 0 mm 1 mps 768 mmHg 79%
    20:00 +15°C° 0 mm 1 mps 768 mmHg 87%
    21:00 +14°C° 0 mm 1 mps 768 mmHg 90%
    22:00 +14°C° 0 mm 1 mps 768 mmHg 93%
    23:00 +13°C° 0 mm 1 mps 768 mmHg 96%

    27 November, Monday

    Time Temperature Precipitation Wind Pressure Humidity
    00:00 +13°C° 0 mm 1 mps 768 mmHg 96%
    01:00 +13°C° 0 mm 1 mps 767 mmHg 96%
    02:00 +12°C° 0 mm 1 mps 767 mmHg 97%
    03:00 +13°C° 0 mm 1 mps 767 mmHg 95%
    04:00 +13°C° 0 mm 1 mps 767 mmHg 94%
    05:00 +13°C° 0 mm 1 mps 768 mmHg 93%
    06:00 +16°C° 0 mm 1 mps 768 mmHg 82%
    07:00 +20°C° 0 mm 1 mps 768 mmHg 71%
    08:00 +21°C° 0 mm 0 mps 768 mmHg 60%
    09:00 +24°C° 0 mm 1 mps 768 mmHg 55%
    10:00 +25°C° 0 mm 1 mps 768 mmHg 49%
    11:00 +27°C° 0 mm 2 mps 768 mmHg 43%
    12:00 +26°C° 0 mm 2 mps 768 mmHg 44%
    13:00 +26°C° 0 mm 3 mps 768 mmHg 44%
    14:00 +25°C° 0 mm 3 mps 768 mmHg 44%
    15:00 +24°C° 0 mm 3 mps 768 mmHg 47%
    16:00 +23°C° 0 mm 2 mps 768 mmHg 50%
    17:00 +21°C° 0 mm 2 mps 768 mmHg 54%
    18:00 +20°C° 0 mm 1 mps 768 mmHg 62%
    19:00 +18°C° 0 mm 1 mps 769 mmHg 71%
    20:00 +15°C° 0 mm 1 mps 769 mmHg 79%
    21:00 +14°C° 0 mm 1 mps 769 mmHg 81%
    22:00 +14°C° 0 mm 1 mps 769 mmHg 83%
    23:00 +13°C° 0 mm 1 mps 769 mmHg 85%

    28 November, Tuesday

    Time Temperature Precipitation Wind Pressure Humidity
    00:00 +13°C° 0 mm 1 mps 769 mmHg 85%
    01:00 +13°C° 0 mm 1 mps 769 mmHg 86%
    02:00 +13°C° 0 mm 1 mps 769 mmHg 86%
    03:00 +12°C° 0 mm 0 mps 769 mmHg 86%
    04:00 +12°C° 0 mm 0 mps 769 mmHg 85%
    05:00 +13°C° 0 mm 0 mps 770 mmHg 85%
    06:00 +15°C° 0 mm 0 mps 770 mmHg 75%
    07:00 +19°C° 0 mm 1 mps 770 mmHg 66%
    08:00 +22°C° 0 mm 1 mps 770 mmHg 57%
    09:00 +23°C° 0 mm 1 mps 769 mmHg 53%
    10:00 +25°C° 0 mm 1 mps 769 mmHg 48%
    11:00 +26°C° 0 mm 1 mps 769 mmHg 44%
    12:00 +26°C° 0 mm 2 mps 768 mmHg 43%
    13:00 +27°C° 0 mm 2 mps 768 mmHg 43%
    14:00 +27°C° 0 mm 2 mps 768 mmHg 42%
    15:00 +26°C° 0.1 mm 3 mps 768 mmHg 47%
    16:00 +24°C° 0.1 mm 3 mps 768 mmHg 52%
    17:00 +22°C° 0.1 mm 3 mps 768 mmHg 58%
    18:00 +20°C° 0 mm 3 mps 768 mmHg 63%
    19:00 +18°C° 0 mm 2 mps 769 mmHg 68%
    20:00 +16°C° 0 mm 2 mps 769 mmHg 74%
    21:00 +15°C° 0 mm 2 mps 769 mmHg 77%
    22:00 +14°C° 0 mm 1 mps 769 mmHg 81%
    23:00 +13°C° 0 mm 1 mps 769 mmHg 85%
    Show more